Location: Unspecified
(0.0000°N, 0.0000°E)
Time: 18:29:43
(UTC+02:00)

Iridium 47 - Visible Passes

Search period start: 30 March 2017 00:00
Search period end: 09 April 2017 00:00
Orbit: 776 x 779 km, 86.4° (Epoch: 28 March)

Date Brightness Start Highest point End Pass type
(mag) Time Alt. Az. Time Alt. Az. Time Alt. Az.
30 Mar 5.0 20:30:41 10° N 20:35:53 83° E 20:41:08 10° S visible
31 Mar 8.5 07:26:45 10° ESE 07:29:01 13° E 07:31:18 10° ENE visible
31 Mar 8.3 21:40:59 10° WNW 21:42:52 12° W 21:44:46 10° WSW visible
01 Apr 7.3 21:05:04 10° NNW 21:09:25 27° W 21:13:46 10° SSW visible
02 Apr 5.7 20:30:50 10° N 20:35:57 61° W 20:41:06 10° S visible
03 Apr 8.0 07:25:12 10° SE 07:29:06 21° E 07:32:57 10° NE visible
04 Apr 8.1 21:06:13 10° NW 21:09:28 17° W 21:12:45 10° SW visible
05 Apr 6.8 20:31:16 10° NNW 20:36:01 37° W 20:40:49 10° SSW visible
06 Apr 7.0 07:24:28 10° SSE 07:29:09 34° E 07:33:49 10° NNE visible
07 Apr 8.2 06:52:43 10° SE 06:55:42 15° E 06:58:41 10° NE visible
08 Apr 7.8 20:32:03 10° NW 20:36:05 23° W 20:40:09 10° SW visible
